User: anonymous   Login
Location: Unspecified
(0.0000°N, 0.0000°E)
Time: 00:37:27
(UTC+00:00)
Language:

Tiangong 1 - Orbit

View from above orbital plane
View from above orbital plane
View from above satellite
View from above satellite

Ground track
Ground track

The orbit data is extracted from the following two-line orbital elements,

1 37820U 11053A   14297.89570510  .00066534  00000-0  51297-3 0  5120
2 37820 042.7687 250.1967 0007207 170.2794 235.4614 15.71027714176411
Epoch (UTC): 24 October 2014 21:29:48
Eccentricity: 0.0007207
inclination: 42.7687°
perigee height: 351 km
apogee height: 361 km
right ascension of ascending node: 250.1967°
argument of perigee: 170.2794°
revolutions per day: 15.71027714
mean anomaly at epoch: 235.4614°
orbit number at epoch: 17641

The dashed part of the orbit path shows where the satellite is in the earth's shadow,  

DLR